Regional Weather Roundup
Issued by NWS Kansas City/Pleasant Hill, MO

Home | Current Version | Previous Version | Graphics & Text | Print | Product List | Glossary Off
Versions: 1 2 3 4 5 6 7 8 9 10 11 12 13 14 15 16 17 18 19 20 21 22 23 24 25 26 27 28 29 30 31 32 33 34 35 36 37 38 39 40 41 42 43 44 45 46 47 48 49 50

032
ASUS43 KEAX 241310
RWREAX

WEATHER ROUNDUP FOR EASTERN KANSAS AND NORTHWEST MISSOURI
NATIONAL WEATHER SERVICE KANSAS CITY/PLEASANT HILL MO
700 AM CST TUE JAN 24 2017

KSZ040-057-103>105-MOZ028-029-037-043-241400-
...KANSAS CITY METROPOLITAN AREA...

CITY           SKY/WX    TMP DP  RH WIND       PRES   REMARKS
K.C. INTL      CLOUDY    31  28  89 E17G24    29.72F FOG     WCI  19
K.C. DOWNTOWN  CLOUDY    33  30  88 E14G22    29.73F WCI  23
LEES SUMMIT    CLOUDY    31  32 100 E17       29.73F HAZE    WCI  19
OLATHE - IXD   CLEAR     33  30  88 E15       29.69F WCI  23
OLATHE - OJC   CLEAR     31  30  96 E12       29.70F WCI  22
LAWRENCE       CLEAR     32  31  96 E10       29.70S WCI  24

$$

MOZ001>008-011>017-020>025-030>033-038>040-044>046-053-054-241400-
...NORTHERN AND CENTRAL MISSOURI...

CITY           SKY/WX    TMP DP  RH WIND       PRES   REMARKS
ST. JOSEPH     CLOUDY    31  31 100 E16G22    29.74F FOG     WCI  20
MOSBY          CLOUDY    32  32 100 E13       29.76F FOG     WCI  22
WARRENSBURG    CLOUDY    32  30  93 E12       29.78S FOG     WCI  23
WHITEMAN AFB   CLOUDY    32  32 100 E12       29.78R FOG     WCI  23
CLINTON        CLOUDY    32  32 100 E12       29.75F FOG     WCI  23
SEDALIA        FOG       32  31  96 E15       29.80F VSB 3/4 WCI  22
WARSAW         NOT AVBL
CHILLICOTHE      N/A     31  29  92 E10       29.83S WCI  22
KIRKSVILLE     CLOUDY    30  29  96 E9        29.84F WCI  22

$$

MOZ041-047>049-056>058-063>065-088>090-097-241400-
...EASTERN AND SOUTHERN MISSOURI...

CITY           SKY/WX    TMP DP  RH WIND       PRES   REMARKS
ST. LOUIS INTL MOCLDY    38  30  73 E6        29.89F WCI  33
SPIRIT OF STL  MOCLDY    36  32  85 E5        29.89F WCI  32
COLUMBIA       CLOUDY    33  31  92 E10       29.82F WCI  25
JEFFERSON CITY PTCLDY    27  26  96 SE8       29.85F FOG     WCI  19
ROLLA          CLEAR     29  29 100 E10       29.83S WCI  20
OSAGE BEACH    CLEAR     31  30  96 E8        29.81F WCI  23
SPRINGFIELD    CLEAR     40  32  73 SE16      29.72F WCI  31
BRANSON        CLEAR     32  32 100 SE14      29.77F WCI  22
JOPLIN         CLEAR     41  34  76 SE12      29.67R WCI  34
WEST PLAINS    CLEAR     33  31  92 SE7       29.85S WCI  27

$$

IAZ060-094-KSZ022-034>040-054-083-096-NEZ052-066-093-241400-
...KANSAS...SOUTHEAST NEBRASKA AND IOWA...

CITY           SKY/WX    TMP DP  RH WIND       PRES   REMARKS
TOPEKA         CLEAR     34  30  85 E14       29.67S WCI  25
MANHATTAN      CLEAR     35  31  85 E10       29.61S WCI  27
EMPORIA        CLEAR     35  31  85 E13       29.59F WCI  26
CHANUTE        CLEAR     40  32  73 SE12      29.63R WCI  33
WICHITA        PTCLDY    38  32  79 S9        29.52F WCI  31
OMAHA          CLOUDY    31  26  82 E6        29.77S WCI  25
LINCOLN        CLOUDY    31  30  96 E14       29.71F FOG     WCI  21
FALLS CITY     CLOUDY    31  29  92 E15       29.72S FOG     WCI  20
LAMONI         CLOUDY    29  27  92 E9        29.79F WCI  20
DES MOINES     CLOUDY    32  28  85 SE9       29.85S WCI  24

$$





USA.gov is the U.S. government's official web portal to all federal, state and local government web resources and services.